This is the latest recevied weather packets stored in our database for station/object WC4PEM-1. If no packets are shown the sender has not sent any weather packets the latest 10 day(s).
| Time | Temp. | Humidity | Pressure | Rain* | Wind** | Luminosity | Snow |
|---|---|---|---|---|---|---|---|
| 1777821509 | 20° C | 80% | 1017.3 hPa | 0 mm | - | 503 W/m² | - |
| 1777821209 | 19.44° C | 79% | 1017.4 hPa | 0 mm | - | 329 W/m² | - |
| 1777820909 | 19.44° C | 80% | 1017.6 hPa | 0 mm | - | 318 W/m² | - |
| 1777820609 | 19.44° C | 80% | 1017.5 hPa | 0 mm | - | 232 W/m² | - |
| 1777820309 | 19.44° C | 80% | 1017.7 hPa | 0 mm | - | 207 W/m² | - |
| 1777820009 | 18.89° C | 81% | 1017.6 hPa | 0 mm | - | 239 W/m² | - |
| 1777819709 | 18.89° C | 81% | 1017.5 hPa | 0 mm | - | 174 W/m² | - |
| 1777819409 | 18.89° C | 81% | 1017.4 hPa | 0 mm | - | 134 W/m² | - |
| 1777819109 | 18.89° C | 81% | 1017.4 hPa | 0 mm | - | 125 W/m² | - |
| 1777818809 | 18.89° C | 81% | 1017.4 hPa | 0 mm | - | 111 W/m² | - |
| 1777818509 | 18.89° C | 81% | 1017.4 hPa | 0 mm | - | 118 W/m² | - |
| 1777818209 | 18.89° C | 83% | 1017.2 hPa | 0 mm | - | 111 W/m² | - |
| 1777817909 | 18.89° C | 82% | 1017.1 hPa | 0 mm | - | 111 W/m² | - |
| 1777817609 | 18.89° C | 83% | 1017 hPa | 0 mm | - | 142 W/m² | - |
| 1777817309 | 18.89° C | 83% | 1016.8 hPa | 0 mm | - | 113 W/m² | - |
| 1777817009 | 18.89° C | 83% | 1016.8 hPa | 0 mm | - | 128 W/m² | - |
| 1777816709 | 18.89° C | 84% | 1016.7 hPa | 0 mm | - | 130 W/m² | - |
| 1777816409 | 18.33° C | 84% | 1016.6 hPa | 0 mm | - | 114 W/m² | - |
| 1777816109 | 18.33° C | 84% | 1016.6 hPa | 0 mm | - | 127 W/m² | - |
| 1777815809 | 18.33° C | 83% | 1016.6 hPa | 0 mm | - | 100 W/m² | - |
| 1777815509 | 18.33° C | 84% | 1016.5 hPa | 0 mm | - | 91 W/m² | - |
| 1777815209 | 18.33° C | 84% | 1016.4 hPa | 0 mm | - | 107 W/m² | - |
| 1777814909 | 18.33° C | 84% | 1016.3 hPa | 0 mm | - | 132 W/m² | - |
| 1777814609 | 18.33° C | 84% | 1016.2 hPa | 0 mm | - | 123 W/m² | - |
| 1777814309 | 18.33° C | 84% | 1016.2 hPa | 0 mm | - | 142 W/m² | - |
* Rain latest hour (hover to see other rain measurements)
** Current wind speed in m/s (hover to see current wind gust speed)